Overview Statistics Trail Chart Weather Telemetry Raw packets
 

This is the latest recevied weather packets stored in our database for station/object SV9TNF-54. If no packets are shown the sender has not sent any weather packets the latest 10 day(s).

<< 89 90 91 92 93 94 95 >>
Time Temp. Humidity Pressure Rain* Wind** Luminosity Snow
1787967097 30° C 39% 1013.6 hPa 0 mm 37.1 m/s, 1° - -
1787966797 30.56° C 38% 1013.6 hPa 0 mm 35.32 m/s, 41° - -
1787966497 30.56° C 38% 1013.6 hPa 0 mm 35.32 m/s, 41° - -
1787966198 30.56° C 38% 1013.6 hPa 0 mm 35.32 m/s, 41° - -
1787965897 30.56° C 37% 1013.9 hPa 0 mm 24.14 m/s, 21° - -
1787965597 30.56° C 37% 1013.9 hPa 0 mm 24.14 m/s, 21° - -
1787965297 30.56° C 37% 1013.9 hPa 0 mm 24.14 m/s, 21° - -
1787964997 30.56° C 37% 1013.9 hPa 0 mm 24.14 m/s, 21° - -
1787964697 30.56° C 37% 1013.9 hPa 0 mm 24.14 m/s, 21° - -
1787964397 30.56° C 37% 1013.9 hPa 0 mm 24.14 m/s, 21° - -
1787964096 31.11° C 36% 1013.6 hPa 0 mm 33.98 m/s, 29° - -
1787963796 31.11° C 36% 1013.6 hPa 0 mm 33.98 m/s, 29° - -
1787963496 31.11° C 36% 1013.6 hPa 0 mm 33.98 m/s, 29° - -
1787963196 31.11° C 36% 1013.6 hPa 0 mm 33.98 m/s, 29° - -
1787962896 31.11° C 36% 1013.6 hPa 0 mm 33.98 m/s, 29° - -
1787962596 31.11° C 36% 1013.6 hPa 0 mm 33.98 m/s, 29° - -
1787962296 31.11° C 36% 1013.6 hPa 0 mm 33.98 m/s, 29° - -
1787961996 31.11° C 36% 1013.6 hPa 0 mm 33.98 m/s, 29° - -
1787961696 31.11° C 36% 1013.6 hPa 0 mm 33.98 m/s, 29° - -
1787961396 31.11° C 37% 1013.9 hPa 0 mm 29.06 m/s, 61° - -
1787961096 31.11° C 37% 1013.9 hPa 0 mm 29.06 m/s, 61° - -
1787960795 31.11° C 37% 1013.9 hPa 0 mm 29.06 m/s, 61° - -
1787960495 31.11° C 38% 1013.9 hPa 0 mm 25.48 m/s, 72° - -
1787960195 31.11° C 38% 1013.9 hPa 0 mm 25.48 m/s, 72° - -
1787959895 31.11° C 38% 1013.9 hPa 0 mm 25.48 m/s, 72° - -

* Rain latest hour (hover to see other rain measurements)
** Current wind speed in m/s (hover to see current wind gust speed)